UR5RFF-13 Weather Reports


time (UTC)temp
F
wind
direction
speed
knots
gust
knots
rain 1hr
in
rain 24hr
in
rain mn
in
humidity
%
barometer
mb
20260507065556 77 219 7.0 13.0 0.00 0.00 0.00 25 1015.4
20260507064544 76 239 7.8 12.2 0.00 0.00 0.00 25 1015.7
20260507063528 75 193 8.7 13.0 0.00 0.00 0.00 25 1015.9
20260507062614 75 201 7.0 9.6 0.00 0.00 0.00 27 1015.7
20260507061603 74 225 7.8 13.0 0.00 0.00 0.00 28 1015.6
20260507060548 74 201 6.1 13.0 0.00 0.00 0.00 30 1015.8
20260507055533 73 213 7.0 10.4 0.00 0.00 0.00 30 1015.8
20260507054521 72 216 7.8 9.6 0.00 0.00 0.00 31 1015.8
20260507053606 72 222 7.0 10.4 0.00 0.00 0.00 32 1015.8
20260507052552 72 226 7.0 13.0 0.00 0.00 0.00 33 1015.7
20260507051541 72 221 6.1 9.6 0.00 0.00 0.00 34 1015.8
20260507050525 71 215 7.0 9.6 0.00 0.00 0.00 35 1015.6
20260507045611 70 225 6.1 8.7 0.00 0.00 0.00 36 1015.6
20260507044559 70 243 4.3 7.0 0.00 0.00 0.00 37 1015.7
20260507043544 69 225 6.1 7.8 0.00 0.00 0.00 37 1015.6
20260507042530 69 216 5.2 9.6 0.00 0.00 0.00 38 1015.5
20260507041618 68 217 5.2 7.8 0.00 0.00 0.00 39 1015.5
20260507040602 67 228 5.2 7.0 0.00 0.00 0.00 39 1015.5
20260507035548 67 222 3.5 7.0 0.00 0.00 0.00 40 1015.4
20260507034535 66 240 4.3 6.1 0.00 0.00 0.00 40 1015.4
20260507033621 65 213 4.3 6.1 0.00 0.00 0.00 40 1015.2
20260507032607 65 196 3.5 3.5 0.00 0.00 0.00 41 1015.2
20260507031555 64 233 3.5 7.0 0.00 0.00 0.00 41 1015.2
20260507030540 63 225 4.3 7.0 0.00 0.00 0.00 43 1015.1
20260507025525 63 207 3.5 6.1 0.00 0.00 0.00 44 1015.0
20260507024613 62 217 3.5 5.2 0.00 0.00 0.00 44 1014.9
20260507023600 62 232 4.3 7.0 0.00 0.00 0.00 43 1014.9
20260507022546 62 217 3.5 6.1 0.00 0.00 0.00 43 1014.8
20260507021535 61 194 5.2 7.0 0.00 0.00 0.00 43 1014.8
20260507020620 61 186 3.5 5.2 0.00 0.00 0.00 43 1014.6
20260507015606 61 195 3.5 5.2 0.00 0.00 0.00 43 1014.6
20260507014555 61 202 3.5 4.3 0.00 0.00 0.00 43 1014.6
20260507013540 61 217 2.6 3.5 0.00 0.00 0.00 43 1014.3
20260507012526 61 225 2.6 4.3 0.00 0.00 0.00 42 1014.5
20260507011615 62 215 2.6 3.5 0.00 0.00 0.00 42 1014.3
20260507010558 62 225 2.6 3.5 0.00 0.00 0.00 42 1014.4
20260507005544 62 225 2.6 3.5 0.00 0.00 0.00 41 1014.3
20260507004532 62 221 2.6 3.5 0.00 0.00 0.00 41 1014.1
20260507003618 62 225 2.6 3.5 0.00 0.00 0.00 41 1014.1
20260507002604 62 219 2.6 3.5 0.00 0.00 0.00 41 1014.0
20260507001553 63 189 2.6 3.5 0.00 0.00 0.00 40 1013.9
20260507000538 63 225 2.6 3.5 0.00 0.00 0.00 40 1013.9
20260506235523 63 225 1.7 3.5 0.00 0.00 0.00 40 1013.8
20260506234613 63 209 2.6 3.5 0.00 0.00 0.00 40 1013.8
20260506233558 62 211 3.5 5.2 0.00 0.00 0.00 41 1013.8
20260506232544 62 214 1.7 3.5 0.00 0.00 0.00 41 1013.7
20260506231532 62 222 1.7 3.5 0.00 0.00 0.00 41 1013.7
20260506230618 61 225 0.9 1.7 0.00 0.00 0.00 41 1013.6
20260506225604 62 225 0.9 1.7 0.00 0.00 0.00 41 1013.7
20260506224552 62 225 0.9 1.7 0.00 0.00 0.00 41 1013.5
20260506223538 62 225 0.9 1.7 0.00 0.00 0.00 41 1013.5
20260506222525 62 225 0.0 1.7 0.00 0.00 0.00 40 1013.5
20260506221614 62 225 0.9 1.7 0.00 0.00 0.00 40 1013.4
20260506220558 62 225 0.9 1.7 0.00 0.00 0.00 40 1013.3
20260506215544 62 225 0.0 1.7 0.00 0.00 0.00 38 1013.3
20260506214534 62 0.0 0.9 0.00 0.00 0.00 36 1013.0
20260506213619 63 225 0.0 1.7 0.00 0.00 0.00 35 1013.2
20260506212604 64 225 0.0 1.7 0.00 0.00 0.00 32 1013.1
20260506211552 64 0.0 0.9 0.00 0.00 0.00 31 1013.1
20260506210537 65 225 0.9 1.7 0.00 0.00 0.00 31 1013.1
20260506205523 66 225 0.0 1.7 0.00 0.00 0.00 30 1012.9
20260506204612 66 225 0.9 1.7 0.00 0.00 0.00 30 1012.8
20260506203558 67 220 1.7 2.6 0.00 0.00 0.00 28 1012.8
20260506202544 68 225 0.9 2.6 0.00 0.00 0.00 26 1012.7
20260506201533 68 220 2.6 4.3 0.00 0.00 0.00 26 1012.8
20260506200619 67 210 2.6 4.3 0.00 0.00 0.00 28 1012.7
20260506195603 67 198 1.7 3.5 0.00 0.00 0.00 30 1012.6
20260506194552 66 203 0.9 1.7 0.00 0.00 0.00 29 1012.6
20260506193537 67 225 0.9 1.7 0.00 0.00 0.00 28 1012.6
20260506192522 67 180 0.0 1.7 0.00 0.00 0.00 27 1012.6
20260506191611 68 0.0 0.9 0.00 0.00 0.00 27 1012.6
20260506190556 67 208 0.9 3.5 0.00 0.00 0.00 28 1012.6
20260506185543 67 225 0.0 1.7 0.00 0.00 0.00 28 1012.5
20260506184531 67 225 0.0 1.7 0.00 0.00 0.00 28 1012.4
20260506183616 68 225 0.0 1.7 0.00 0.00 0.00 28 1012.4
20260506182602 69 0.0 0.0 0.00 0.00 0.00 26 1012.3
20260506181550 71 0.0 0.9 0.00 0.00 0.00 24 1012.1
20260506180535 73 225 0.0 1.7 0.00 0.00 0.00 21 1012.1
20260506175521 74 202 0.9 1.7 0.00 0.00 0.00 21 1012.1
20260506174609 74 214 1.7 2.6 0.00 0.00 0.00 21 1012.0
20260506173555 75 225 0.0 1.7 0.00 0.00 0.00 21 1012.0
20260506172542 77 180 0.9 1.7 0.00 0.00 0.00 21 1011.8
20260506171530 78 225 1.7 3.5 0.00 0.00 0.00 20 1011.8
20260506170615 80 180 0.9 1.7 0.00 0.00 0.00 20 1011.7
20260506165601 81 225 2.6 4.3 0.00 0.00 0.00 20 1011.7
20260506164549 82 187 3.5 5.2 0.00 0.00 0.00 13 1011.8
20260506163534 83 204 4.3 7.8 0.00 0.00 0.00 13 1011.6
20260506162520 83 223 4.3 7.8 0.00 0.00 0.00 13 1011.6
20260506161609 84 196 4.3 6.1 0.00 0.00 0.00 14 1011.5
20260506160554 84 207 4.3 6.1 0.00 0.00 0.00 14 1011.6
20260506155539 84 196 6.1 7.8 0.00 0.00 0.00 14 1011.6
20260506154527 84 215 7.8 11.3 0.00 0.00 0.00 14 1011.5
20260506153613 84 209 5.2 9.6 0.00 0.00 0.00 14 1011.6
20260506152559 84 207 7.8 12.2 0.00 0.00 0.00 14 1011.6
20260506151547 84 202 8.7 12.2 0.00 0.00 0.00 14 1011.6
20260506150532 85 202 6.1 9.6 0.00 0.00 0.00 14 1011.8
20260506145617 85 180 9.6 14.8 0.00 0.00 0.00 14 1011.7
20260506144605 85 188 7.0 12.2 0.00 0.00 0.00 14 1011.8
20260506143551 86 188 5.2 7.8 0.00 0.00 0.00 14 1011.8
20260506142537 85 203 6.1 9.6 0.00 0.00 0.00 14 1011.8
20260506141524 85 197 7.8 11.3 0.00 0.00 0.00 14 1011.8
20260506140610 86 180 6.1 9.6 0.00 0.00 0.00 14 1011.8
20260506135556 86 211 5.2 8.7 0.00 0.00 0.00 14 1011.8
20260506134545 86 214 7.8 12.2 0.00 0.00 0.00 14 1011.7
20260506133530 85 258 9.6 13.9 0.00 0.00 0.00 14 1011.8
20260506132617 85 189 8.7 14.8 0.00 0.00 0.00 14 1011.8
20260506131604 86 223 4.3 8.7 0.00 0.00 0.00 14 1011.7
20260506130550 85 221 7.8 12.2 0.00 0.00 0.00 14 1012.0
20260506125536 86 219 4.3 9.6 0.00 0.00 0.00 14 1011.9
20260506124525 85 275 4.3 7.0 0.00 0.00 0.00 14 1012.0
20260506123611 86 264 6.1 10.4 0.00 0.00 0.00 14 1012.1
20260506122556 85 267 8.7 11.3 0.00 0.00 0.00 14 1012.1
20260506121545 85 280 4.3 7.0 0.00 0.00 0.00 14 1012.2
20260506120530 85 249 7.8 13.0 0.00 0.00 0.00 14 1012.3
20260506115615 85 259 6.1 9.6 0.00 0.00 0.00 14 1012.4
20260506114604 85 219 6.1 10.4 0.00 0.00 0.00 14 1012.6
20260506113550 84 253 9.6 14.8 0.00 0.00 0.00 14 1012.6
20260506112536 84 236 7.8 13.9 0.00 0.00 0.00 14 1012.7
20260506111523 84 277 9.6 13.9 0.00 0.00 0.00 14 1012.7
20260506110609 84 229 3.5 5.2 0.00 0.00 0.00 14 1012.7
20260506105555 84 204 9.6 13.0 0.00 0.00 0.00 14 1012.8
20260506104543 85 223 8.7 13.9 0.00 0.00 0.00 14 1012.9
20260506103528 83 246 7.8 15.6 0.00 0.00 0.00 14 1012.9
20260506102615 83 210 12.2 18.2 0.00 0.00 0.00 13 1012.9
20260506101602 83 231 7.8 17.4 0.00 0.00 0.00 13 1012.9
20260506100547 83 231 6.1 10.4 0.00 0.00 0.00 13 1013.0
20260506095533 83 289 7.0 17.4 0.00 0.00 0.00 13 1012.9
20260506094521 82 236 4.3 7.0 0.00 0.00 0.00 13 1013.0
20260506093608 82 224 3.5 7.8 0.00 0.00 0.00 13 1013.2
20260506092553 82 270 7.0 12.2 0.00 0.00 0.00 15 1013.2
20260506091541 82 230 5.2 8.7 0.00 0.00 0.00 17 1013.2
20260506090526 82 207 5.2 7.8 0.00 0.00 0.00 13 1013.1
20260506085611 81 258 3.5 7.0 0.00 0.00 0.00 20 1013.2
20260506084559 81 249 6.1 8.7 0.00 0.00 0.00 20 1013.2
20260506083545 81 233 7.0 9.6 0.00 0.00 0.00 20 1013.1
20260506082530 81 315 3.5 5.2 0.00 0.00 0.00 21 1013.2
20260506081519 80 290 4.3 7.8 0.00 0.00 0.00 21 1013.1
20260506080604 79 270 5.2 9.6 0.00 0.00 0.00 21 1013.3
20260506073524 78 233 3.5 6.1 0.00 0.00 0.00 23 1013.2
20260506072609 78 237 3.5 5.2 0.00 0.00 0.00 23 1013.1
20260506071557 78 244 2.6 5.2 0.00 0.00 0.00 25 1013.0
20260506070542 76 239 3.5 4.3 0.00 0.00 0.00 25 1013.1